Home   Weather   Nuuk   Past weeks

Flag for Greenland Past Weather in Nuuk, Greenland — Yesterday and Last 2 Weeks

Now
27 °F

Passing clouds.


Feels Like: 15 °F
Forecast: 14 / 26 °F
Wind: 14 mph from Southeast

Location: Godthaab / Nuuk

Current Time: Jan 19, 2017 at 11:04:04 pm

Latest Report: Jan 19, 2017 at 9:50 pm


Visibility: N/A

Pressure: 29.71 "Hg

Humidity: 64%

Dew Point: 16 °F

Location of NuukLocation

Past Weather in Nuuk — Graph

°F

Nuuk Temperature Yesterday

Maximum temperature yesterday: 21 °F (at 9:50 pm)
Minimum temperature yesterday: 14 °F (at 12:50 am)
Average temperature yesterday: 17 °F

High & Low Weather Summary for the Past Weeks

 TemperatureHumidityPressure
High37 °F (Jan 6, 10:50 am)100% (Jan 5, 1:50 am)30.15 "Hg (Jan 5, 1:50 am)
Low5 °F (Jan 17, 4:50 pm)50% (Jan 7, 5:50 am)28.62 "Hg (Jan 6, 7:50 am)
Average18 °F81%29.52 "Hg
* Reported Jan 4 9:50 pm — Jan 19 9:50 pm, Nuuk, Weather by CustomWeather, © 2017

Note: Actual official high and low records may vary slightly from our data, if they occured in-between our weather recording intervals... More about our weather records

Advertising

Nuuk Weather History for the Previous 24 Hours

Scroll right to see more
 ConditionsComfort  
Time TempWeatherWind HumidityBarometerVisibility
9:50 pm
Thu, Jan 19
27 °FPassing clouds.14 mph64%29.71 "HgN/A
8:50 pm27 °FPassing clouds.14 mph64%29.74 "HgN/A
7:50 pm25 °FPassing clouds.14 mph63%29.77 "HgN/A
6:50 pm25 °FPassing clouds.12 mph63%29.77 "HgN/A
5:50 pm25 °FPassing clouds.9 mph63%29.80 "HgN/A
4:50 pm25 °FPassing clouds.7 mph63%29.80 "HgN/A
3:50 pm25 °FPassing clouds.16 mph69%29.80 "HgN/A
2:50 pm25 °FPartly sunny.15 mph63%29.80 "HgN/A
1:50 pm27 °FPartly sunny.16 mph64%29.80 "HgN/A
12:50 pm25 °FScattered clouds.16 mph69%29.83 "HgN/A
11:50 am27 °FLight snow. Scattered clouds.21 mph59%29.83 "HgN/A
10:50 am25 °FPartly sunny.15 mph63%29.86 "HgN/A
9:50 am25 °FPartly sunny.22 mph63%29.86 "HgN/A
8:50 am25 °FPassing clouds.18 mph69%29.89 "HgN/A
7:50 am25 °FPassing clouds.25 mph69%29.89 "HgN/A
6:50 am25 °FPassing clouds.23 mph69%29.89 "HgN/A
5:50 am23 °FLight freezing rain. Ice fog.28 mph74%29.89 "Hg2 mi
4:50 am23 °FLight freezing rain. Ice fog.30 mph74%29.89 "Hg1 mi
3:50 am23 °FLight freezing rain. Ice fog.30 mph68%29.86 "Hg2 mi
2:50 am23 °FLight freezing rain. Ice fog.32 mph68%29.89 "Hg1 mi
1:50 am23 °FLight freezing rain. Ice fog.26 mph74%29.89 "Hg1 mi
12:50 am23 °FLight freezing rain. Ice fog.30 mph68%29.89 "Hg1 mi
11:50 pm
Wed, Jan 18
21 °FLight snow. Ice fog.31 mph74%29.92 "Hg1 mi
Weather by CustomWeather, © 2017

See weather overviewHow to use our weather pages